This is the latest recevied weather packets stored in our database for station/object AI5BL. If no packets are shown the sender has not sent any weather packets the latest 10 day(s).
| Time | Temp. | Humidity | Pressure | Rain* | Wind** | Luminosity | Snow |
|---|---|---|---|---|---|---|---|
| 1788273944 | 31.67° C | 67% | 1021.3 hPa | 0 mm | - | 422 W/m² | - |
| 1788273639 | 31.11° C | 69% | 1021.3 hPa | 0 mm | - | 394 W/m² | - |
| 1788273335 | 31.67° C | 76% | 1021.2 hPa | 0 mm | - | 388 W/m² | - |
| 1788273031 | 30.56° C | 70% | 1021.4 hPa | 0 mm | - | 403 W/m² | - |
| 1788272731 | 31.11° C | 71% | 1021.4 hPa | 0 mm | - | 390 W/m² | - |
| 1788272445 | 31.11° C | 72% | 1021.3 hPa | 0 mm | - | 375 W/m² | - |
| 1788272126 | 30.56° C | 72% | 1021.4 hPa | 0 mm | - | 348 W/m² | - |
| 1788271821 | 30° C | 74% | 1021.4 hPa | 0 mm | - | 328 W/m² | - |
| 1788271520 | 29.44° C | 79% | 1021.3 hPa | 0 mm | - | 308 W/m² | - |
| 1788271215 | 30° C | 79% | 1021.2 hPa | 0 mm | - | 302 W/m² | - |
| 1788270908 | 30° C | 77% | 1021.2 hPa | 0 mm | - | 294 W/m² | - |
| 1788270604 | 29.44° C | 79% | 1021.2 hPa | 0 mm | - | 252 W/m² | - |
| 1788270300 | 28.89° C | 80% | 1021.3 hPa | 0 mm | - | 247 W/m² | - |
| 1788269999 | 28.89° C | 81% | 1021.3 hPa | 0 mm | - | 236 W/m² | - |
| 1788269699 | 28.33° C | 83% | 1021.4 hPa | 0 mm | - | 210 W/m² | - |
| 1788269398 | 27.78° C | 84% | 1021.2 hPa | 0 mm | - | 196 W/m² | - |
| 1788269097 | 27.78° C | 86% | 1021.2 hPa | 0 mm | - | 176 W/m² | - |
| 1788268796 | 27.78° C | 85% | 1021.3 hPa | 0 mm | - | 145 W/m² | - |
| 1788268490 | 27.78° C | 85% | 1021.2 hPa | 0 mm | - | 128 W/m² | - |
| 1788268187 | 26.11° C | 88% | 1021.3 hPa | 0 mm | - | 109 W/m² | - |
| 1788267881 | 25.56° C | 92% | 1021.3 hPa | 0 mm | - | 97 W/m² | - |
| 1788267579 | 24.44° C | 95% | 1021.3 hPa | 0 mm | - | 86 W/m² | - |
| 1788267279 | 23.89° C | 98% | 1021.2 hPa | 0 mm | - | 59 W/m² | - |
| 1788266979 | 23.33° C | 99% | 1021.3 hPa | 0 mm | - | 37 W/m² | - |
| 1788266674 | 23.33° C | 99% | 1021.3 hPa | 0 mm | - | 34 W/m² | - |
* Rain latest hour (hover to see other rain measurements)
** Current wind speed in m/s (hover to see current wind gust speed)